Regional Weather Roundup
Issued by NWS

Home | Current Version | Previous Version | Text Only | Print | Product List | Glossary On
Versions: 1 2 3 4 5 6 7 8 9 10 11 12 13 14 15 16 17 18 19 20 21 22 23 24 25 26 27 28 29 30 31 32 33 34 35 36 37 38 39 40 41 42 43 44 45 46 47 48 49 50
000
ASUS45 KTFX 311319
RWRMT
MONTANA REGIONAL WEATHER ROUNDUP
NATIONAL WEATHER SERVICE GREAT FALLS MT
700 AM MDT MON AUG 31 2015

NOTE: "FAIR" INDICATES FEW OR NO CLOUDS BELOW 12000 FEET WITH NO
SIGNIFICANT WEATHER AND/OR OBSTRUCTIONS TO VISIBILITY.

MTZ001>007-043-311400-
WEST OF THE DIVIDE

CITY           SKY/WX    TMP DP  RH WIND       PRES   REMARKS
KALISPELL      MOSUNNY   42  39  89 CALM      30.00R
MISSOULA       CLOUDY    45  43  93 CALM      30.07S
BUTTE          PTCLDY    41  35  79 CALM      30.11R
MULLAN PASS    MOCLDY    39  36  89 W9G24     30.08R
DEER LODGE       N/A     39  34  81 CALM      30.12S
EUREKA           N/A     55  43  62 E12G18    29.95F
HAMILTON         N/A     48  39  71 S7        30.07S
LIBBY            N/A     48  48 100 CALM      30.00S VSB 1/4
PLAINS           N/A     54  41  61 CALM      30.04R
RONAN            N/A     51  44  77 SE1       30.08S
THOMPSON FALLS   N/A     43  41  93 CALM      30.08S
$$

MTZ008-052>055-311400-
SOUTHWEST MONTANA

CITY           SKY/WX    TMP DP  RH WIND       PRES   REMARKS
BOZEMAN        PTCLDY    42  37  82 CALM      30.06S
DILLON         PTCLDY    46  34  62 S12       30.08R
W YELLOWSTONE  CLEAR     30  23  74 CALM      30.17R
THREE FORKS      N/A     40 -11  11 CALM      30.05S
TWIN BRIDGES     N/A     43  33  67 E6        30.06S
$$

MTZ009-010-012-014-046-048-049-054-311400-
EAST SLOPES AND CENTRAL MONTANA

CITY           SKY/WX    TMP DP  RH WIND       PRES   REMARKS
CUT BANK       MOCLDY    54  33  45 W28G41    29.86R
GREAT FALLS    PTCLDY    53  34  48 SW22      29.90F
MALMSTROM AFB  PTCLDY    53  34  49 S15       29.91S
HELENA         MOCLDY    56  33  42 W7        30.03R
CONRAD           N/A     39  34  82 SE2       29.90S
$$

MTZ011-013-016-021-045-047-050-051-311400-
NORTH CENTRAL MONTANA

CITY           SKY/WX    TMP DP  RH WIND       PRES   REMARKS
HAVRE          CLEAR     51  35  54 MISG      29.85S
LEWISTOWN      PTCLDY    47  35  63 VRB3      29.95S
N BAR RANCH      N/A     45  36  70 W7G13     29.98R
CHINOOK          N/A     55  36  47 SW12      29.85R
FORT BENTON      N/A     55  34  44 S8        29.90R
$$

MTZ017>020-022>027-061-062-311400-
NORTHEAST MONTANA

CITY           SKY/WX    TMP DP  RH WIND       PRES   REMARKS
GLASGOW        CLEAR     52  43  71 W13       29.85R
JORDAN           N/A     47  41  80 W3        29.91R
SIDNEY         PTCLDY    59  52  77 S7        29.87R
WOLF POINT     CLEAR     56  48  74 W12       29.86R
MALTA            N/A     49  41  74 SW7       29.83R
PLENTYWOOD       N/A     54  46  76 SW9       29.81R
POPLAR           N/A     54  52  94 SW7       29.86S
SCOBEY           N/A     52  42  68 SW13      29.82R
$$

MTZ028>42-056>058-311400-
SOUTHCENTRAL AND SOUTHEAST MONTANA

CITY           SKY/WX    TMP DP  RH WIND       PRES   REMARKS
BAKER          CLEAR     54  51  90 W9        29.94R
BILLINGS       PTCLDY    55  42  61 SW7       29.98S
LIVINGSTON     PTCLDY    50  37  61 W12       30.03S
MILES CITY     CLEAR     54  49  83 SW3       29.95R
EKALAKA          N/A     53  47  80 NW2       29.96R
FORSYTH          N/A     55  48  76 S3        29.95S
LAUREL           N/A     46  39  76 W3        29.97R
ROUNDUP          N/A     52  35  52 CALM      29.89R
$$

REGIONAL REPORTS...DAKOTAS

CITY           SKY/WX    TMP DP  RH WIND       PRES   REMARKS
WILLISTON        N/A    N/A N/A N/A MISG      29.84R
MINOT          CLOUDY    61  54  77 NW10      29.77R
DICKINSON      MOCLDY    57  52  83 NW5       29.87R
BEACH          PTSUNNY   55  55 100 W8        29.93R
CROSBY           N/A     57  57 100 SW15      29.79R
BISMARCK       CLOUDY    68  56  65 NW9G18    29.77R
GRAND FORKS    PTSUNNY   64  61  90 S7        29.66R
FARGO          MOSUNNY   67  60  78 S14       29.69R
BUFFALO SD       N/A     58  52  80 NW23      29.86R
RAPID CITY     CLOUDY    68  53  58 N23G32    29.91R
$$

REGIONAL REPORTS...WYOMING/IDAHO/WASHINGTON

CITY           SKY/WX    TMP DP  RH WIND       PRES   REMARKS
GILLETTE       PTCLDY    54  47  77 N12       30.03R
SHERIDAN       CLEAR     54  42  64 E3        30.02R
BUFFALO WY     PTCLDY    52  41  66 VRB3      30.08R
CODY           CLEAR     46  36  66 S6        30.03R
YELLOWSTONE LA   N/A     32  25  75 CALM      30.23R
IDAHO FALLS    CLEAR     48  34  58 SW9       30.11R
SALMON         PTCLDY    43  36  75 CALM      30.10R
BOISE          CLEAR     53  42  66 CALM      30.07S
SPOKANE        MOCLDY    50  45  83 S12       30.02R
$$

REGIONAL REPORTS...ALBERTA

CITY           SKY/WX    TMP DP  RH WIND       PRES   REMARKS
EDMONTON       CLEAR     48  39  71 SW5       29.53S
CALGARY        MOCLDY    52  34  50 S6        29.66F
LETHBRIDGE     MOCLDY    55  36  47 W13       29.79R
MEDICINE HAT   CLOUDY    54  37  54 SW16G23   29.72S
WATERTON GATE    N/A     52  34  50 SW20G28     N/A
CARDSTON         N/A     55  30  38 W9G17       N/A
MILK RIVER       N/A     46  34  61 SW5         N/A
ONEFOUR          N/A     54  36  50 SW10        N/A
$$

REGIONAL REPORTS...SASKATCHEWAN

CITY           SKY/WX    TMP DP  RH WIND       PRES   REMARKS
SWIFT CURRENT  CLEAR     54  37  54 SW22G31   29.69R
REGINA         MOCLDY    54  52  94 SW14      29.69R
SASKATOON      PTCLDY    54  43  66 SW14      29.55R
CYPRESS HILLS    N/A     43  34  70 SW7         N/A
VAL MARIE        N/A     52  39  62 W17G24      N/A
ROCKGLEN         N/A     46  43  87 SW13        N/A
ASSINIBOIA       N/A     43  43 100 S5          N/A
$$



USA.gov is the U.S. government's official web portal to all federal, state and local government web resources and services.